"read_dt","SO2 (ppb)","flags","PMT voltage (V)","lamp voltage (V)","lamp intensity (Hz)","internal temp (C)","react chamber temp (C)","sample flow (l/min)","pres (mmHg)","SO2 bkg (ppb)","SO2 coefficient"
2017-04-26 00:00:00,1769E-3,5C000400,-0724,0835,12109,026.4,045.4,0.224,753.8,01.17,0.508
2017-04-26 00:01:00,1679E-3,5C000400,-0724,0834,11992,026.4,045.4,0.225,753.8,01.17,0.508
2017-04-26 00:02:00,1723E-3,5C000400,-0724,0835,12031,026.4,045.4,0.224,753.8,01.17,0.508
2017-04-26 00:03:00,1682E-3,5C000400,-0724,0835,12210,026.4,045.4,0.225,753.7,01.17,0.508
2017-04-26 00:04:00,1717E-3,5C000400,-0724,0835,12082,026.5,045.4,0.224,753.7,01.17,0.508
2017-04-26 00:05:00,1727E-3,5C000400,-0724,0835,11963,026.5,045.4,0.224,753.7,01.17,0.508
2017-04-26 00:06:00,1831E-3,5C000400,-0724,0835,12001,026.4,045.4,0.224,753.7,01.17,0.508
2017-04-26 00:07:00,1812E-3,5C000400,-0724,0835,11987,026.5,045.4,0.224,753.7,01.17,0.508
2017-04-26 00:08:00,1778E-3,5C000400,-0724,0834,11998,026.4,045.4,0.224,753.7,01.17,0.508
2017-04-26 00:09:00,1699E-3,5C000400,-0724,0835,12128,026.4,045.4,0.224,753.7,01.17,0.508
2017-04-26 00:10:00,1739E-3,5C000400,-0724,0835,12115,026.4,045.4,0.225,753.7,01.17,0.508
2017-04-26 00:11:00,1770E-3,5C000400,-0724,0834,12092,026.5,045.4,0.225,753.7,01.17,0.508
2017-04-26 00:12:00,1856E-3,5C000400,-0724,0835,12072,026.5,045.4,0.225,753.7,01.17,0.508
2017-04-26 00:13:00,1841E-3,5C000400,-0724,0835,12101,026.4,045.4,0.224,753.7,01.17,0.508
2017-04-26 00:14:00,1738E-3,5C000400,-0724,0834,12119,026.5,045.4,0.224,753.7,01.17,0.508
2017-04-26 00:15:00,1765E-3,5C000400,-0724,0835,12186,026.5,045.4,0.225,753.7,01.17,0.508
2017-04-26 00:16:00,1746E-3,5C000400,-0724,0834,12078,026.5,045.4,0.224,753.7,01.17,0.508
2017-04-26 00:17:00,1637E-3,5C000400,-0724,0835,11947,026.4,045.4,0.224,753.7,01.17,0.508
2017-04-26 00:18:00,1631E-3,5C000400,-0724,0836,11918,026.4,045.4,0.224,753.7,01.17,0.508
2017-04-26 00:19:00,1669E-3,5C000400,-0724,0835,12122,026.5,045.4,0.224,753.7,01.17,0.508
2017-04-26 00:20:00,1719E-3,5C000400,-0724,0835,12139,026.5,045.4,0.224,753.6,01.17,0.508
2017-04-26 00:21:00,1843E-3,5C000400,-0724,0835,12084,026.5,045.4,0.224,753.6,01.17,0.508
2017-04-26 00:22:00,1837E-3,5C000400,-0724,0835,12145,026.5,045.4,0.224,753.6,01.17,0.508
2017-04-26 00:23:00,1745E-3,5C000400,-0724,0835,12053,026.5,045.4,0.224,753.6,01.17,0.508
2017-04-26 00:24:00,1715E-3,5C000400,-0724,0835,12136,026.5,045.4,0.225,753.6,01.17,0.508
2017-04-26 00:25:00,1834E-3,5C000400,-0724,0835,12068,026.5,045.4,0.224,753.6,01.17,0.508
2017-04-26 00:26:00,1885E-3,5C000400,-0724,0835,12027,026.5,045.4,0.225,753.6,01.17,0.508
2017-04-26 00:27:00,1768E-3,5C000400,-0724,0835,12005,026.5,045.4,0.224,753.6,01.17,0.508
2017-04-26 00:28:00,1781E-3,5C000400,-0724,0835,11850,026.4,045.4,0.224,753.6,01.17,0.508
2017-04-26 00:29:00,1688E-3,5C000400,-0724,0835,12114,026.5,045.4,0.224,753.6,01.17,0.508
2017-04-26 00:30:00,1787E-3,5C000400,-0724,0835,12010,026.4,045.4,0.224,753.6,01.17,0.508
2017-04-26 00:31:00,1781E-3,5C000400,-0724,0835,12109,026.4,045.4,0.225,753.6,01.17,0.508
2017-04-26 00:32:00,1679E-3,5C000400,-0724,0835,12009,026.5,045.4,0.224,753.6,01.17,0.508
2017-04-26 00:33:00,1873E-3,5C000400,-0724,0835,11982,026.4,045.4,0.224,753.6,01.17,0.508
2017-04-26 00:34:00,1738E-3,5C000400,-0724,0835,11881,026.4,045.4,0.224,753.6,01.17,0.508
2017-04-26 00:35:00,1828E-3,5C000400,-0724,0835,12195,026.5,045.4,0.224,753.6,01.17,0.508
2017-04-26 00:36:00,1740E-3,5C000400,-0724,0835,11962,026.4,045.4,0.225,753.6,01.17,0.508
2017-04-26 00:37:00,1925E-3,5C000400,-0724,0835,12093,026.5,045.4,0.224,753.6,01.17,0.508
2017-04-26 00:38:00,1794E-3,5C000400,-0724,0835,12056,026.5,045.4,0.225,753.6,01.17,0.508
2017-04-26 00:39:00,1918E-3,5C000400,-0724,0835,12112,026.5,045.4,0.224,753.6,01.17,0.508
2017-04-26 00:40:00,1976E-3,5C000400,-0724,0835,12205,026.5,045.4,0.224,753.6,01.17,0.508
2017-04-26 00:41:00,1782E-3,5C000400,-0724,0835,12005,026.5,045.4,0.224,753.6,01.17,0.508
2017-04-26 00:42:00,1673E-3,5C000400,-0724,0835,12082,026.5,045.4,0.224,753.6,01.17,0.508
2017-04-26 00:43:00,1817E-3,5C000400,-0724,0835,12113,026.5,045.4,0.224,753.6,01.17,0.508
2017-04-26 00:44:00,1659E-3,5C000400,-0724,0836,12241,026.5,045.4,0.224,753.6,01.17,0.508
2017-04-26 00:45:00,1805E-3,5C000400,-0724,0834,12214,026.5,045.4,0.225,753.6,01.17,0.508
2017-04-26 00:46:00,1694E-3,5C000400,-0724,0834,11996,026.5,045.4,0.224,753.6,01.17,0.508
2017-04-26 00:47:00,1947E-3,5C000400,-0724,0835,11987,026.5,045.4,0.225,753.6,01.17,0.508
2017-04-26 00:48:00,1860E-3,5C000400,-0724,0835,12139,026.5,045.4,0.224,753.6,01.17,0.508
2017-04-26 00:49:00,1762E-3,5C000400,-0724,0835,12162,026.5,045.4,0.224,753.6,01.17,0.508
2017-04-26 00:50:00,1621E-3,5C000400,-0724,0835,12039,026.5,045.4,0.224,753.6,01.17,0.508
2017-04-26 00:51:00,1751E-3,5C000400,-0724,0835,12124,026.5,045.4,0.224,753.6,01.17,0.508
2017-04-26 00:52:00,1826E-3,5C000400,-0724,0834,12077,026.5,045.4,0.224,753.6,01.17,0.508
2017-04-26 00:53:00,1828E-3,5C000400,-0724,0834,12235,026.5,045.4,0.224,753.5,01.17,0.508
2017-04-26 00:54:00,1697E-3,5C000400,-0724,0835,12077,026.5,045.4,0.224,753.5,01.17,0.508
2017-04-26 00:55:00,1692E-3,5C000400,-0724,0834,12089,026.5,045.4,0.224,753.5,01.17,0.508
2017-04-26 00:56:00,1576E-3,5C000400,-0724,0835,11969,026.5,045.4,0.224,753.5,01.17,0.508
2017-04-26 00:57:00,1876E-3,5C000400,-0724,0835,12005,026.5,045.4,0.224,753.5,01.17,0.508
2017-04-26 00:58:00,1754E-3,5C000400,-0724,0835,12174,026.5,045.4,0.224,753.5,01.17,0.508
2017-04-26 00:59:00,1696E-3,5C000400,-0724,0834,11936,026.5,045.4,0.224,753.5,01.17,0.508
2017-04-26 01:00:00,1683E-3,5C000400,-0724,0834,11919,026.5,045.4,0.224,753.5,01.17,0.508
2017-04-26 01:01:00,1752E-3,5C000400,-0724,0834,11918,026.5,045.4,0.224,753.5,01.17,0.508
2017-04-26 01:02:00,1833E-3,5C000400,-0724,0835,12168,026.5,045.4,0.224,753.5,01.17,0.508
2017-04-26 01:03:00,1682E-3,5C000400,-0724,0834,11955,026.5,045.4,0.224,753.5,01.17,0.508
2017-04-26 01:04:00,1658E-3,5C000400,-0724,0835,12125,026.5,045.4,0.224,753.5,01.17,0.508
2017-04-26 01:05:00,1782E-3,5C000400,-0724,0835,12049,026.5,045.4,0.224,753.5,01.17,0.508
2017-04-26 01:06:00,1811E-3,5C000400,-0724,0835,12112,026.5,045.4,0.224,753.5,01.17,0.508
2017-04-26 01:07:00,1845E-3,5C000400,-0724,0834,12185,026.5,045.4,0.224,753.5,01.17,0.508
2017-04-26 01:08:00,1709E-3,5C000400,-0724,0835,12087,026.5,045.4,0.224,753.5,01.17,0.508
2017-04-26 01:09:00,1874E-3,5C000400,-0724,0835,12157,026.5,045.4,0.224,753.5,01.17,0.508
2017-04-26 01:10:00,1703E-3,5C000400,-0724,0835,12183,026.5,045.4,0.224,753.4,01.17,0.508
2017-04-26 01:11:00,1843E-3,5C000400,-0724,0836,12040,026.5,045.4,0.225,753.4,01.17,0.508
2017-04-26 01:12:00,1915E-3,5C000400,-0724,0835,12015,026.5,045.4,0.225,753.4,01.17,0.508
2017-04-26 01:13:00,1728E-3,5C000400,-0724,0834,12042,026.6,045.4,0.225,753.4,01.17,0.508
2017-04-26 01:14:00,1723E-3,5C000400,-0724,0835,12079,026.6,045.4,0.224,753.5,01.17,0.508
2017-04-26 01:15:00,1829E-3,5C000400,-0724,0835,12007,026.6,045.4,0.224,753.4,01.17,0.508
2017-04-26 01:16:00,1812E-3,5C000400,-0724,0835,12081,026.6,045.4,0.224,753.5,01.17,0.508
2017-04-26 01:17:00,1663E-3,5C000400,-0724,0836,12212,026.6,045.4,0.224,753.5,01.17,0.508
2017-04-26 01:18:00,1759E-3,5C000400,-0724,0835,12080,026.6,045.4,0.224,753.4,01.17,0.508
2017-04-26 01:19:00,1875E-3,5C000400,-0724,0835,12056,026.6,045.4,0.224,753.4,01.17,0.508
2017-04-26 01:20:00,1747E-3,5C000400,-0724,0835,12188,026.6,045.4,0.224,753.5,01.17,0.508
2017-04-26 01:21:00,1865E-3,5C000400,-0724,0835,12068,026.6,045.4,0.224,753.4,01.17,0.508
2017-04-26 01:22:00,1762E-3,5C000400,-0724,0835,12180,026.6,045.4,0.224,753.5,01.17,0.508
2017-04-26 01:23:00,1641E-3,5C000400,-0724,0835,12046,026.6,045.4,0.224,753.4,01.17,0.508
2017-04-26 01:24:00,1785E-3,5C000400,-0724,0835,12021,026.6,045.4,0.224,753.4,01.17,0.508
2017-04-26 01:25:00,1753E-3,5C000400,-0724,0835,12200,026.6,045.4,0.224,753.4,01.17,0.508
2017-04-26 01:26:00,1830E-3,5C000400,-0724,0834,12063,026.6,045.4,0.224,753.4,01.17,0.508
2017-04-26 01:27:00,1760E-3,5C000400,-0724,0835,11949,026.6,045.4,0.224,753.4,01.17,0.508
2017-04-26 01:28:00,1797E-3,5C000400,-0724,0835,12068,026.6,045.4,0.224,753.4,01.17,0.508
2017-04-26 01:29:00,1782E-3,5C000400,-0724,0835,12057,026.6,045.4,0.224,753.4,01.17,0.508
2017-04-26 01:30:00,1690E-3,5C000400,-0724,0835,12150,026.6,045.4,0.224,753.3,01.17,0.508
2017-04-26 01:31:00,1825E-3,5C000400,-0724,0835,12146,026.6,045.4,0.224,753.3,01.17,0.508
2017-04-26 01:32:00,1741E-3,5C000400,-0724,0834,12230,026.6,045.4,0.224,753.3,01.17,0.508
2017-04-26 01:33:00,1758E-3,5C000400,-0724,0835,12052,026.6,045.4,0.224,753.3,01.17,0.508
2017-04-26 01:34:00,1847E-3,5C000400,-0724,0835,12017,026.6,045.4,0.224,753.3,01.17,0.508
2017-04-26 01:35:00,1843E-3,5C000400,-0724,0834,12176,026.6,045.4,0.224,753.3,01.17,0.508
2017-04-26 01:36:00,1854E-3,5C000400,-0724,0835,12028,026.6,045.4,0.224,753.3,01.17,0.508
2017-04-26 01:37:00,1741E-3,5C000400,-0724,0834,11926,026.7,045.4,0.224,753.2,01.17,0.508
2017-04-26 01:38:00,1846E-3,5C000400,-0724,0834,12022,026.6,045.4,0.224,753.2,01.17,0.508
2017-04-26 01:39:00,1862E-3,5C000400,-0724,0834,12169,026.7,045.4,0.224,753.3,01.17,0.508
2017-04-26 01:40:00,1774E-3,5C000400,-0724,0834,12089,026.7,045.4,0.224,753.2,01.17,0.508
2017-04-26 01:41:00,1762E-3,5C000400,-0724,0835,12074,026.7,045.4,0.224,753.2,01.17,0.508
2017-04-26 01:42:00,1841E-3,5C000400,-0724,0834,12116,026.7,045.4,0.224,753.2,01.17,0.508
2017-04-26 01:43:00,1842E-3,5C000400,-0724,0835,11953,026.7,045.4,0.224,753.3,01.17,0.508
2017-04-26 01:44:00,1839E-3,5C000400,-0724,0835,12036,026.7,045.4,0.224,753.2,01.17,0.508
2017-04-26 01:45:00,1838E-3,5C000400,-0724,0835,12157,026.7,045.4,0.224,753.2,01.17,0.508
2017-04-26 01:46:00,1704E-3,5C000400,-0724,0835,12108,026.7,045.4,0.224,753.2,01.17,0.508
2017-04-26 01:47:00,1774E-3,5C000400,-0724,0835,12086,026.7,045.4,0.224,753.2,01.17,0.508
2017-04-26 01:48:00,1807E-3,5C000400,-0724,0835,12027,026.7,045.4,0.224,753.2,01.17,0.508
2017-04-26 01:49:00,1790E-3,5C000400,-0724,0835,12061,026.7,045.4,0.224,753.2,01.17,0.508
2017-04-26 01:50:00,1851E-3,5C000400,-0724,0834,12111,026.7,045.4,0.224,753.2,01.17,0.508
2017-04-26 01:51:00,1800E-3,5C000400,-0724,0835,12107,026.7,045.4,0.224,753.2,01.17,0.508
2017-04-26 01:52:00,1738E-3,5C000400,-0724,0835,11982,026.7,045.4,0.224,753.2,01.17,0.508
2017-04-26 01:53:00,1739E-3,5C000400,-0724,0835,12019,026.7,045.4,0.224,753.2,01.17,0.508
2017-04-26 01:54:00,1864E-3,5C000400,-0724,0835,12142,026.8,045.4,0.224,753.2,01.17,0.508
2017-04-26 01:55:00,1810E-3,5C000400,-0724,0835,12100,026.8,045.4,0.224,753.2,01.17,0.508
2017-04-26 01:56:00,1841E-3,5C000400,-0724,0835,11982,026.8,045.4,0.224,753.2,01.17,0.508
2017-04-26 01:57:00,1835E-3,5C000400,-0724,0835,12077,026.8,045.4,0.224,753.2,01.17,0.508
2017-04-26 01:58:00,1691E-3,5C000400,-0724,0835,12200,026.8,045.4,0.224,753.1,01.17,0.508
2017-04-26 01:59:00,1702E-3,5C000400,-0724,0835,12069,026.8,045.4,0.223,753.2,01.17,0.508
2017-04-26 02:00:00,1838E-3,5C000400,-0724,0835,12114,026.8,045.4,0.224,753.1,01.17,0.508
2017-04-26 02:01:00,1854E-3,5C000400,-0724,0835,12141,026.8,045.4,0.224,753.1,01.17,0.508
2017-04-26 02:02:00,1732E-3,5C000400,-0724,0835,12073,026.8,045.4,0.224,753.1,01.17,0.508
2017-04-26 02:03:00,1716E-3,5C000400,-0724,0835,12104,026.8,045.4,0.224,753.1,01.17,0.508
2017-04-26 02:04:00,1760E-3,5C000400,-0724,0835,12045,026.8,045.4,0.223,753.1,01.17,0.508
2017-04-26 02:05:00,1704E-3,5C000400,-0724,0835,12037,026.8,045.4,0.224,753.1,01.17,0.508
2017-04-26 02:06:00,1692E-3,5C000400,-0724,0835,11944,026.8,045.4,0.224,753.1,01.17,0.508
2017-04-26 02:07:00,1765E-3,5C000400,-0724,0834,12034,026.8,045.4,0.223,753.1,01.17,0.508
2017-04-26 02:08:00,1704E-3,5C000400,-0724,0834,12142,026.8,045.4,0.224,753.1,01.17,0.508
2017-04-26 02:09:00,1822E-3,5C000400,-0724,0835,12101,026.8,045.4,0.223,753.1,01.17,0.508
2017-04-26 02:10:00,1906E-3,5C000400,-0724,0834,12096,026.8,045.4,0.224,753.0,01.17,0.508
2017-04-26 02:11:00,1877E-3,5C000400,-0724,0835,12178,026.8,045.4,0.224,753.0,01.17,0.508
2017-04-26 02:12:00,1851E-3,5C000400,-0724,0835,12124,026.9,045.4,0.224,753.1,01.17,0.508
2017-04-26 02:13:00,1758E-3,5C000400,-0724,0834,12096,026.9,045.4,0.223,753.1,01.17,0.508
2017-04-26 02:14:00,1843E-3,5C000400,-0724,0834,12038,026.9,045.4,0.224,753.1,01.17,0.508
2017-04-26 02:15:00,1750E-3,5C000400,-0724,0836,12055,026.9,045.4,0.223,753.1,01.17,0.508
2017-04-26 02:16:00,1774E-3,5C000400,-0724,0835,11982,026.9,045.4,0.224,753.1,01.17,0.508
2017-04-26 02:17:00,1731E-3,5C000400,-0724,0835,12116,026.9,045.4,0.223,753.1,01.17,0.508
2017-04-26 02:18:00,1688E-3,5C000400,-0724,0836,12142,026.9,045.4,0.223,753.1,01.17,0.508
2017-04-26 02:19:00,1783E-3,5C000400,-0724,0835,12009,026.9,045.4,0.224,753.1,01.17,0.508
2017-04-26 02:20:00,1705E-3,5C000400,-0724,0835,12052,026.9,045.4,0.223,753.1,01.17,0.508
2017-04-26 02:21:00,1694E-3,5C000400,-0724,0836,11965,027.0,045.4,0.223,753.1,01.17,0.508
2017-04-26 02:22:00,1749E-3,5C000400,-0724,0835,11999,027.0,045.4,0.224,753.1,01.17,0.508
2017-04-26 02:23:00,1750E-3,5C000400,-0724,0835,12145,027.0,045.4,0.223,753.1,01.17,0.508
2017-04-26 02:24:00,1700E-3,5C000400,-0724,0834,12074,027.0,045.4,0.223,753.1,01.17,0.508
2017-04-26 02:25:00,1700E-3,5C000400,-0724,0834,12071,027.0,045.4,0.223,753.1,01.17,0.508
2017-04-26 02:26:00,1768E-3,5C000400,-0724,0835,12060,027.0,045.4,0.223,753.1,01.17,0.508
2017-04-26 02:27:00,1656E-3,5C000400,-0724,0834,12182,027.0,045.4,0.223,753.0,01.17,0.508
2017-04-26 02:28:00,1773E-3,5C000400,-0724,0835,12202,027.0,045.4,0.223,753.1,01.17,0.508
2017-04-26 02:29:00,1740E-3,5C000400,-0724,0835,12095,027.0,045.4,0.223,753.0,01.17,0.508
2017-04-26 02:30:00,1687E-3,5C000400,-0724,0836,12048,027.0,045.4,0.223,753.0,01.17,0.508
2017-04-26 02:31:00,1778E-3,5C000400,-0724,0836,12081,027.0,045.4,0.223,753.0,01.17,0.508
2017-04-26 02:32:00,1748E-3,5C000400,-0724,0834,12020,027.0,045.4,0.223,753.0,01.17,0.508
2017-04-26 02:33:00,1828E-3,5C000400,-0724,0835,12182,027.0,045.4,0.224,753.0,01.17,0.508
2017-04-26 02:34:00,1576E-3,5C000400,-0724,0836,12040,027.0,045.4,0.223,753.0,01.17,0.508
2017-04-26 02:35:00,1662E-3,5C000400,-0724,0834,12022,027.0,045.4,0.223,753.0,01.17,0.508
2017-04-26 02:36:00,1735E-3,5C000400,-0724,0835,12089,027.0,045.4,0.223,753.0,01.17,0.508
2017-04-26 02:37:00,1706E-3,5C000400,-0724,0836,12197,027.1,045.4,0.223,753.0,01.17,0.508
2017-04-26 02:38:00,1720E-3,5C000400,-0724,0835,12063,027.0,045.4,0.223,753.0,01.17,0.508
2017-04-26 02:39:00,1681E-3,5C000400,-0724,0834,12087,027.0,045.4,0.223,753.0,01.17,0.508
2017-04-26 02:40:00,1812E-3,5C000400,-0724,0834,12066,027.1,045.4,0.223,753.0,01.17,0.508
2017-04-26 02:41:00,1779E-3,5C000400,-0724,0835,12070,027.1,045.4,0.223,753.0,01.17,0.508
2017-04-26 02:42:00,1634E-3,5C000400,-0724,0836,12120,027.1,045.4,0.223,753.0,01.17,0.508
2017-04-26 02:43:00,1734E-3,5C000400,-0724,0835,11984,027.1,045.4,0.223,753.0,01.17,0.508
2017-04-26 02:44:00,1822E-3,5C000400,-0724,0836,12051,027.1,045.4,0.223,752.9,01.17,0.508
2017-04-26 02:45:00,1864E-3,5C000400,-0724,0835,12046,027.1,045.4,0.223,752.9,01.17,0.508
2017-04-26 02:46:00,1716E-3,5C000400,-0724,0836,12082,027.1,045.4,0.223,752.9,01.17,0.508
2017-04-26 02:47:00,1875E-3,5C000400,-0724,0834,12210,027.1,045.4,0.223,752.9,01.17,0.508
2017-04-26 02:48:00,1921E-3,5C000400,-0724,0835,12037,027.1,045.4,0.223,752.9,01.17,0.508
2017-04-26 02:49:00,1646E-3,5C000400,-0724,0835,12072,027.1,045.4,0.223,752.9,01.17,0.508
2017-04-26 02:50:00,1859E-3,5C000400,-0724,0835,12193,027.1,045.4,0.223,752.9,01.17,0.508
2017-04-26 02:51:00,1728E-3,5C000400,-0724,0835,12166,027.1,045.4,0.223,752.9,01.17,0.508
2017-04-26 02:52:00,1754E-3,5C000400,-0724,0835,12103,027.1,045.4,0.223,752.9,01.17,0.508
2017-04-26 02:53:00,1664E-3,5C000400,-0724,0836,12124,027.2,045.4,0.223,752.9,01.17,0.508
2017-04-26 02:54:00,1697E-3,5C000400,-0724,0835,12209,027.2,045.4,0.223,752.9,01.17,0.508
2017-04-26 02:55:00,1801E-3,5C000400,-0724,0834,12090,027.2,045.4,0.223,752.9,01.17,0.508
2017-04-26 02:56:00,1759E-3,5C000400,-0724,0834,12015,027.2,045.4,0.223,752.9,01.17,0.508
2017-04-26 02:57:00,1760E-3,5C000400,-0724,0834,12074,027.2,045.4,0.223,752.9,01.17,0.508
2017-04-26 02:58:00,1770E-3,5C000400,-0724,0835,11985,027.2,045.4,0.223,752.9,01.17,0.508
2017-04-26 02:59:00,1838E-3,5C000400,-0724,0834,12081,027.2,045.4,0.223,752.9,01.17,0.508
2017-04-26 03:00:00,1742E-3,5C000400,-0724,0834,12022,027.2,045.4,0.223,752.8,01.17,0.508
2017-04-26 03:01:00,1715E-3,5C000400,-0724,0835,12103,027.2,045.4,0.223,752.9,01.17,0.508
2017-04-26 03:02:00,1662E-3,5C000400,-0724,0835,12195,027.2,045.4,0.223,752.8,01.17,0.508
2017-04-26 03:03:00,1735E-3,5C000400,-0724,0835,12112,027.2,045.4,0.223,752.9,01.17,0.508
2017-04-26 03:04:00,1823E-3,5C000400,-0724,0835,12113,027.2,045.4,0.223,752.9,01.17,0.508
2017-04-26 03:05:00,1687E-3,5C000400,-0724,0835,11999,027.3,045.4,0.223,752.8,01.17,0.508
2017-04-26 03:06:00,1715E-3,5C000400,-0724,0835,12057,027.3,045.4,0.223,752.9,01.17,0.508
2017-04-26 03:07:00,1829E-3,5C000400,-0724,0835,12203,027.3,045.4,0.223,752.8,01.17,0.508
2017-04-26 03:08:00,1835E-3,5C000400,-0724,0835,12133,027.3,045.4,0.223,752.8,01.17,0.508
2017-04-26 03:09:00,1729E-3,5C000400,-0724,0835,12046,027.3,045.4,0.223,752.8,01.17,0.508
2017-04-26 03:10:00,1801E-3,5C000400,-0724,0835,12010,027.3,045.4,0.223,752.8,01.17,0.508
2017-04-26 03:11:00,1827E-3,5C000400,-0724,0835,12131,027.3,045.4,0.223,752.7,01.17,0.508
2017-04-26 03:12:00,1769E-3,5C000400,-0724,0835,12128,027.3,045.4,0.223,752.7,01.17,0.508
2017-04-26 03:13:00,1697E-3,5C000400,-0724,0834,12073,027.3,045.4,0.223,752.7,01.17,0.508
2017-04-26 03:14:00,1731E-3,5C000400,-0724,0835,12114,027.3,045.4,0.222,752.7,01.17,0.508
2017-04-26 03:15:00,1914E-3,5C000400,-0724,0834,12093,027.3,045.4,0.223,752.8,01.17,0.508
2017-04-26 03:16:00,1741E-3,5C000400,-0724,0836,11986,027.3,045.4,0.223,752.7,01.17,0.508
2017-04-26 03:17:00,1896E-3,5C000400,-0724,0835,12125,027.3,045.5,0.222,752.7,01.17,0.508
2017-04-26 03:18:00,1867E-3,5C000400,-0724,0834,12098,027.3,045.4,0.223,752.7,01.17,0.508
2017-04-26 03:19:00,1732E-3,5C000400,-0724,0835,12088,027.3,045.4,0.223,752.7,01.17,0.508
2017-04-26 03:20:00,1822E-3,5C000400,-0724,0835,12169,027.3,045.4,0.222,752.7,01.17,0.508
2017-04-26 03:21:00,1752E-3,5C000400,-0724,0835,12090,027.3,045.4,0.223,752.7,01.17,0.508
2017-04-26 03:22:00,1741E-3,5C000400,-0724,0835,12122,027.3,045.4,0.223,752.7,01.17,0.508
2017-04-26 03:23:00,1710E-3,5C000400,-0724,0836,12052,027.4,045.4,0.222,752.7,01.17,0.508
2017-04-26 03:24:00,1728E-3,5C000400,-0724,0834,11957,027.4,045.5,0.223,752.7,01.17,0.508
2017-04-26 03:25:00,1824E-3,5C000400,-0724,0835,12101,027.4,045.5,0.223,752.7,01.17,0.508
2017-04-26 03:26:00,1787E-3,5C000400,-0724,0835,12029,027.4,045.4,0.222,752.7,01.17,0.508
2017-04-26 03:27:00,1781E-3,5C000400,-0724,0835,12121,027.4,045.4,0.223,752.6,01.17,0.508
2017-04-26 03:28:00,1742E-3,5C000400,-0724,0835,12192,027.4,045.4,0.222,752.7,01.17,0.508
2017-04-26 03:29:00,1789E-3,5C000400,-0724,0835,12075,027.4,045.5,0.222,752.7,01.17,0.508
2017-04-26 03:30:00,1689E-3,5C000400,-0724,0836,12085,027.5,045.4,0.222,752.7,01.17,0.508
2017-04-26 03:31:00,1788E-3,5C000400,-0724,0836,12163,027.5,045.4,0.222,752.7,01.17,0.508
2017-04-26 03:32:00,1746E-3,5C000400,-0724,0835,12066,027.5,045.5,0.222,752.7,01.17,0.508
2017-04-26 03:33:00,1717E-3,5C000400,-0724,0835,12113,027.5,045.4,0.222,752.7,01.17,0.508
2017-04-26 03:34:00,1622E-3,5C000400,-0724,0836,12043,027.5,045.4,0.222,752.7,01.17,0.508
2017-04-26 03:35:00,1897E-3,5C000400,-0724,0835,11954,027.5,045.4,0.222,752.7,01.17,0.508
2017-04-26 03:36:00,1695E-3,5C000400,-0724,0835,12119,027.5,045.4,0.222,752.7,01.17,0.508
2017-04-26 03:37:00,1771E-3,5C000400,-0724,0835,12100,027.5,045.4,0.222,752.7,01.17,0.508
2017-04-26 03:38:00,1731E-3,5C000400,-0724,0835,12169,027.5,045.5,0.222,752.6,01.17,0.508
2017-04-26 03:39:00,1773E-3,5C000400,-0724,0835,11972,027.6,045.5,0.222,752.6,01.17,0.508
2017-04-26 03:40:00,1788E-3,5C000400,-0724,0835,11976,027.6,045.4,0.222,752.6,01.17,0.508
2017-04-26 03:41:00,1706E-3,5C000400,-0724,0837,11976,027.6,045.4,0.222,752.6,01.17,0.508
2017-04-26 03:42:00,1661E-3,5C000400,-0724,0836,12170,027.6,045.5,0.222,752.6,01.17,0.508
2017-04-26 03:43:00,1849E-3,5C000400,-0724,0834,12226,027.6,045.4,0.222,752.6,01.17,0.508
2017-04-26 03:44:00,1813E-3,5C000400,-0724,0835,11983,027.6,045.4,0.222,752.6,01.17,0.508
2017-04-26 03:45:00,1819E-3,5C000400,-0724,0835,12056,027.6,045.4,0.222,752.6,01.17,0.508
2017-04-26 03:46:00,1729E-3,5C000400,-0724,0834,12189,027.6,045.4,0.222,752.6,01.17,0.508
2017-04-26 03:47:00,1709E-3,5C000400,-0724,0836,12100,027.7,045.4,0.222,752.5,01.17,0.508
2017-04-26 03:48:00,1584E-3,5C000400,-0724,0834,11997,027.7,045.4,0.222,752.5,01.17,0.508
2017-04-26 03:49:00,1623E-3,5C000400,-0724,0835,12126,027.7,045.5,0.222,752.5,01.17,0.508
2017-04-26 03:50:00,1809E-3,5C000400,-0724,0836,12075,027.7,045.4,0.222,752.5,01.17,0.508
2017-04-26 03:51:00,1748E-3,5C000400,-0724,0834,12126,027.7,045.4,0.222,752.5,01.17,0.508
2017-04-26 03:52:00,1601E-3,5C000400,-0724,0835,12058,027.7,045.4,0.222,752.5,01.17,0.508
2017-04-26 03:53:00,1758E-3,5C000400,-0724,0835,12142,027.7,045.4,0.222,752.5,01.17,0.508
2017-04-26 03:54:00,1768E-3,5C000400,-0724,0836,12177,027.7,045.4,0.222,752.5,01.17,0.508
2017-04-26 03:55:00,1750E-3,5C000400,-0724,0835,12142,027.7,045.5,0.222,752.5,01.17,0.508
2017-04-26 03:56:00,1717E-3,5C000400,-0724,0835,12091,027.7,045.5,0.222,752.5,01.17,0.508
2017-04-26 03:57:00,1883E-3,5C000400,-0724,0835,12094,027.7,045.5,0.222,752.5,01.17,0.508
2017-04-26 03:58:00,1727E-3,5C000400,-0724,0835,12140,027.8,045.5,0.222,752.5,01.17,0.508
2017-04-26 03:59:00,1820E-3,5C000400,-0724,0835,12028,027.8,045.4,0.222,752.5,01.17,0.508
2017-04-26 04:00:00,1801E-3,5C000400,-0724,0835,12073,027.8,045.4,0.222,752.5,01.17,0.508
2017-04-26 04:01:00,1676E-3,5C000400,-0724,0835,11862,027.8,045.5,0.221,752.5,01.17,0.508
2017-04-26 04:02:00,1745E-3,5C000400,-0724,0835,12081,027.8,045.4,0.222,752.5,01.17,0.508
2017-04-26 04:03:00,1668E-3,5C000400,-0724,0834,11854,027.8,045.5,0.222,752.5,01.17,0.508
2017-04-26 04:04:00,1773E-3,5C000400,-0724,0835,12083,027.8,045.4,0.221,752.5,01.17,0.508
2017-04-26 04:05:00,1819E-3,5C000400,-0724,0835,12086,027.8,045.4,0.222,752.5,01.17,0.508
2017-04-26 04:06:00,1578E-3,5C000400,-0724,0835,12159,027.8,045.4,0.222,752.4,01.17,0.508
2017-04-26 04:07:00,1624E-3,5C000400,-0724,0834,12042,027.8,045.4,0.222,752.4,01.17,0.508
2017-04-26 04:08:00,1810E-3,5C000400,-0724,0835,12055,027.8,045.4,0.221,752.4,01.17,0.508
2017-04-26 04:09:00,1725E-3,5C000400,-0724,0835,12099,027.9,045.4,0.222,752.4,01.17,0.508
2017-04-26 04:10:00,1769E-3,5C000400,-0724,0834,12115,027.9,045.5,0.222,752.3,01.17,0.508
2017-04-26 04:11:00,1706E-3,5C000400,-0724,0835,12006,027.9,045.4,0.222,752.3,01.17,0.508
2017-04-26 04:12:00,1787E-3,5C000400,-0724,0835,12088,027.9,045.5,0.222,752.3,01.17,0.508
2017-04-26 04:13:00,1783E-3,5C000400,-0724,0835,12065,027.9,045.5,0.222,752.3,01.17,0.508
2017-04-26 04:14:00,1655E-3,5C000400,-0724,0835,12019,027.9,045.5,0.222,752.4,01.17,0.508
2017-04-26 04:15:00,1826E-3,5C000400,-0724,0835,12037,027.9,045.5,0.221,752.4,01.17,0.508
2017-04-26 04:16:00,1983E-3,5C000400,-0724,0835,12118,027.9,045.5,0.221,752.3,01.17,0.508
2017-04-26 04:17:00,1886E-3,5C000400,-0724,0834,12080,027.9,045.5,0.221,752.4,01.17,0.508
2017-04-26 04:18:00,1949E-3,5C000400,-0724,0835,12090,027.9,045.5,0.221,752.4,01.17,0.508
2017-04-26 04:19:00,1770E-3,5C000400,-0724,0835,12072,027.9,045.5,0.221,752.3,01.17,0.508
2017-04-26 04:20:00,1702E-3,5C000400,-0724,0835,12056,028.0,045.5,0.221,752.4,01.17,0.508